Regional Weather Roundup
Issued by NWS

Home | Current Version | Previous Version | Graphics & Text | Print | Product List | Glossary On
Versions: 1 2 3 4 5 6 7 8 9 10 11 12 13 14 15 16 17 18 19 20 21 22 23 24 25 26 27 28 29 30 31 32 33 34 35 36 37 38 39 40 41 42 43 44 45 46 47 48 49 50
786
ASUS43 KLMK 272210
RWRKY
KENTUCKY REGIONAL WEATHER ROUNDUP
NATIONAL WEATHER SERVICE LOUISVILLE KY
600 PM EDT THU APR 27 2017

NOTE "FAIR" INDICATES FEW OR NO CLOUDS BELOW 12,000 FEET
WITH NO SIGNIFICANT WEATHER AND/OR OBSTRUCTIONS TO VISIBILITY.

KYZ001>023-026-027-061>063-070>075-272300-
WESTERN AND SOUTH CENTRAL KENTUCKY

CITY           SKY/WX    TMP DP  RH WIND       PRES   REMARKS
PADUCAH        MOSUNNY   61  46  57 S3        29.80F
HENDERSON      PTSUNNY   59  48  67 SW15      29.84R
OWENSBORO      CLOUDY    60  49  66 SW10      29.84R
HOPKINSVILLE   SUNNY     64  50  61 W9        29.82F
BOWLING GREEN  SUNNY     65  52  62 W8        29.84R
GLASGOW        MOSUNNY   65  51  60 W12       29.84R
$$

KYZ024-025-028>034-038-045-046-053-272300-
NORTH CENTRAL KENTUCKY

CITY           SKY/WX    TMP DP  RH WIND       PRES   REMARKS
LOUISVILLE/SDF PTSUNNY   63  48  58 W12       29.81R
LOUISVILLE/LOU PTSUNNY   62  49  62 SW9       29.82R
FORT KNOX      PTSUNNY   63  49  61 SW10      29.81R
$$

KYZ035>037-039>044-047>052-055>060-089>105-272300-
NORTHEAST KENTUCKY

CITY           SKY/WX    TMP DP  RH WIND       PRES   REMARKS
LEXINGTON      SUNNY     68  51  54 W13       29.80R
COVINGTON      PTSUNNY   61  47  59 SW12G21   29.79R
FRANKFORT      MOSUNNY   65  48  54 W10       29.80R
$$

KYZ054-064>069-076>088-106>120-272300-
SOUTHEAST KENTUCKY

CITY           SKY/WX    TMP DP  RH WIND       PRES   REMARKS
JACKSON        MOSUNNY   76  49  38 VRB6G20   29.75R
LONDON         MOSUNNY   75  51  43 W14       29.78R
SOMERSET       MOSUNNY   72  48  43 W14       29.81R
MIDDLESBORO    PTSUNNY   76  62  62 S12       29.78R
MONTICELLO     MOCLDY    74  54  49 W18G25    29.82R
$$





USA.gov is the U.S. government's official web portal to all federal, state and local government web resources and services.